NKS455 KFLL-KEYW

Flight info

Callsign NKS455
Flight time 0h 39m
Altitude 22000
Route MAYNR3 MAYNR FNTSY FNTSY1
Aircraft A321/M-SDE3FGHIRWY/LB1

Departure

Time 2026-05-03 23:53
Airport Fort Lauderdale Hollywood International Airport (KFLL)

Arrival

Time 2026-05-04 00:32
Airport Key West International Airport (KEYW)
Time Latitude Longitude Altitude Speed Heading
2026-05-03 22:55 26.06884 -80.14474 16 ft 0 kts
2026-05-03 23:05 26.06872 -80.14474 26 ft 4 kts 360°
2026-05-03 23:05 26.06845 -80.14474 16 ft 4 kts 353°
2026-05-03 23:06 26.06824 -80.14464 17 ft 4 kts 298°
2026-05-03 23:06 26.06818 -80.14441 17 ft 1 kts 271°
2026-05-03 23:09 26.06818 -80.14444 16 ft 2 kts 271°
2026-05-03 23:09 26.06818 -80.14463 16 ft 3 kts 271°
2026-05-03 23:09 26.06819 -80.14499 16 ft 6 kts 271°
2026-05-03 23:09 26.06813 -80.14554 17 ft 9 kts 247°
2026-05-03 23:10 26.06770 -80.14610 15 ft 11 kts 246°
2026-05-03 23:10 26.06766 -80.14698 15 ft 12 kts 270°
2026-05-03 23:10 26.06766 -80.14795 15 ft 13 kts 270°
2026-05-03 23:10 26.06767 -80.14898 15 ft 14 kts 270°
2026-05-03 23:11 26.06767 -80.15011 16 ft 15 kts 270°
2026-05-03 23:11 26.06753 -80.15118 18 ft 13 kts 227°
2026-05-03 23:11 26.06697 -80.15166 21 ft 9 kts 250°
2026-05-03 23:11 26.06695 -80.15236 20 ft 10 kts 270°
2026-05-03 23:12 26.06696 -80.15336 16 ft 13 kts 270°
2026-05-03 23:12 26.06696 -80.15382 16 ft 0 kts 270°
2026-05-03 23:14 26.06696 -80.15384 16 ft 1 kts 270°
2026-05-03 23:14 26.06696 -80.15402 16 ft 3 kts 270°
2026-05-03 23:14 26.06697 -80.15430 16 ft 4 kts 270°
2026-05-03 23:14 26.06697 -80.15470 16 ft 6 kts 270°
2026-05-03 23:15 26.06697 -80.15520 16 ft 7 kts 270°
2026-05-03 23:15 26.06697 -80.15543 16 ft 0 kts 270°
2026-05-03 23:35 26.06697 -80.15544 16 ft 0 kts 270°
2026-05-03 23:35 26.06697 -80.15546 16 ft 1 kts 270°
2026-05-03 23:35 26.06697 -80.15555 16 ft 2 kts 270°
2026-05-03 23:36 26.06698 -80.15562 16 ft 0 kts 270°
2026-05-03 23:37 26.06698 -80.15568 16 ft 3 kts 270°
2026-05-03 23:37 26.06698 -80.15592 16 ft 0 kts 270°
2026-05-03 23:46 26.06698 -80.15596 16 ft 2 kts 270°
2026-05-03 23:46 26.06698 -80.15623 16 ft 4 kts 270°
2026-05-03 23:46 26.06698 -80.15659 16 ft 5 kts 270°
2026-05-03 23:47 26.06698 -80.15702 16 ft 6 kts 270°
2026-05-03 23:47 26.06698 -80.15753 16 ft 7 kts 270°
2026-05-03 23:47 26.06686 -80.15806 16 ft 7 kts 232°
2026-05-03 23:47 26.06676 -80.15814 17 ft 0 kts 212°
2026-05-03 23:51 26.06665 -80.15820 16 ft 3 kts 201°
2026-05-03 23:51 26.06636 -80.15822 17 ft 5 kts 175°
2026-05-03 23:52 26.06598 -80.15800 18 ft 7 kts 131°
2026-05-03 23:52 26.06589 -80.15731 20 ft 15 kts 90°
2026-05-03 23:52 26.06587 -80.15338 22 ft 87 kts 90°
2026-05-03 23:52 26.06581 -80.14418 47 ft 146 kts 90°
2026-05-03 23:53 26.06575 -80.13161 346 ft 170 kts 87°
2026-05-03 23:53 26.06559 -80.11819 946 ft 177 kts 89°
2026-05-03 23:53 26.06569 -80.10444 1588 ft 182 kts 87°
2026-05-03 23:53 26.06602 -80.08968 1827 ft 201 kts 87°
2026-05-03 23:54 26.06636 -80.07335 1958 ft 221 kts 88°
2026-05-03 23:54 26.06628 -80.05532 2068 ft 247 kts 97°
2026-05-03 23:54 26.05959 -80.03720 2460 ft 263 kts 130°
2026-05-03 23:54 26.04482 -80.02523 3091 ft 267 kts 163°
2026-05-03 23:55 26.02656 -80.02394 3788 ft 266 kts 196°
2026-05-03 23:55 26.00951 -80.03167 4567 ft 265 kts 208°
2026-05-03 23:55 25.99285 -80.04058 5351 ft 266 kts 208°
2026-05-03 23:55 25.97615 -80.04957 6121 ft 267 kts 208°
2026-05-03 23:56 25.95936 -80.05858 6828 ft 270 kts 209°
2026-05-03 23:56 25.94236 -80.06768 7519 ft 272 kts 209°
2026-05-03 23:56 25.92523 -80.07679 8227 ft 274 kts 209°
2026-05-03 23:56 25.90793 -80.08596 8926 ft 277 kts 208°
2026-05-03 23:57 25.89048 -80.09519 9620 ft 279 kts 208°
2026-05-03 23:57 25.87285 -80.10452 10245 ft 284 kts 208°
2026-05-03 23:57 25.85432 -80.11439 10403 ft 307 kts 208°
2026-05-03 23:57 25.83440 -80.12504 10526 ft 329 kts 208°
2026-05-03 23:58 25.81319 -80.13632 10719 ft 346 kts 208°
2026-05-03 23:58 25.79126 -80.14791 11214 ft 352 kts 208°
2026-05-03 23:58 25.76906 -80.15961 11809 ft 355 kts 208°
2026-05-03 23:58 25.74665 -80.17140 12433 ft 358 kts 208°
2026-05-03 23:59 25.72408 -80.18327 13046 ft 361 kts 208°
2026-05-03 23:59 25.70133 -80.19523 13657 ft 363 kts 208°
2026-05-03 23:59 25.67839 -80.20733 14206 ft 366 kts 208°
2026-05-03 23:59 25.65534 -80.21951 14755 ft 368 kts 208°
2026-05-04 00:00 25.63217 -80.23173 15306 ft 370 kts 208°
2026-05-04 00:00 25.60887 -80.24403 15796 ft 371 kts 208°
2026-05-04 00:00 25.58559 -80.25634 15956 ft 370 kts 209°
2026-05-04 00:00 25.56235 -80.26859 15997 ft 370 kts 208°
2026-05-04 00:01 25.53913 -80.28081 15999 ft 370 kts 208°
2026-05-04 00:01 25.51591 -80.29303 15997 ft 370 kts 208°
2026-05-04 00:01 25.49270 -80.30522 15997 ft 370 kts 208°
2026-05-04 00:01 25.46947 -80.31744 15997 ft 369 kts 209°
2026-05-04 00:02 25.44624 -80.32966 15997 ft 369 kts 208°
2026-05-04 00:02 25.42305 -80.34186 15997 ft 369 kts 208°
2026-05-04 00:02 25.39982 -80.35405 15997 ft 369 kts 208°
2026-05-04 00:02 25.37690 -80.36605 15997 ft 369 kts 208°
2026-05-04 00:03 25.35366 -80.37822 15998 ft 369 kts 208°
2026-05-04 00:03 25.33044 -80.39040 15998 ft 369 kts 208°
2026-05-04 00:03 25.30722 -80.40258 16000 ft 369 kts 208°
2026-05-04 00:03 25.28402 -80.41474 16004 ft 370 kts 208°
2026-05-04 00:04 25.26077 -80.42689 16004 ft 370 kts 208°
2026-05-04 00:04 25.23743 -80.43884 16004 ft 371 kts 205°
2026-05-04 00:04 25.21284 -80.44774 16004 ft 373 kts 200°
2026-05-04 00:04 25.18795 -80.45587 16010 ft 373 kts 200°
2026-05-04 00:05 25.16307 -80.46400 16006 ft 373 kts 200°
2026-05-04 00:05 25.13819 -80.47215 16007 ft 373 kts 200°
2026-05-04 00:05 25.11331 -80.48031 16007 ft 373 kts 200°
2026-05-04 00:05 25.08846 -80.48847 16007 ft 373 kts 200°
2026-05-04 00:06 25.06356 -80.49658 16007 ft 373 kts 200°
2026-05-04 00:06 25.03869 -80.50468 16007 ft 373 kts 200°
2026-05-04 00:06 25.01380 -80.51280 15994 ft 373 kts 200°
2026-05-04 00:06 24.98886 -80.52096 16006 ft 374 kts 200°
2026-05-04 00:07 24.96388 -80.52914 15996 ft 375 kts 200°
2026-05-04 00:07 24.94700 -80.53467 15995 ft 375 kts 200°
2026-05-04 00:07 24.91388 -80.54550 15996 ft 375 kts 200°
2026-05-04 00:07 24.89700 -80.55102 15996 ft 375 kts 200°
2026-05-04 00:08 24.86478 -80.56404 15995 ft 370 kts 212°
2026-05-04 00:08 24.85027 -80.57447 15996 ft 367 kts 221°
2026-05-04 00:08 24.83239 -80.59427 15997 ft 365 kts 234°
2026-05-04 00:08 24.81948 -80.61814 15987 ft 363 kts 247°
2026-05-04 00:09 24.81227 -80.64435 15990 ft 364 kts 259°
2026-05-04 00:09 24.80901 -80.67201 15991 ft 365 kts 262°
2026-05-04 00:09 24.80591 -80.69970 15992 ft 365 kts 262°
2026-05-04 00:09 24.80280 -80.72739 15991 ft 365 kts 262°
2026-05-04 00:10 24.79969 -80.75507 15975 ft 364 kts 262°
2026-05-04 00:10 24.79659 -80.78277 15182 ft 369 kts 262°
2026-05-04 00:10 24.79339 -80.81105 14493 ft 372 kts 262°
2026-05-04 00:10 24.79021 -80.83911 13989 ft 368 kts 262°
2026-05-04 00:11 24.78708 -80.86688 13402 ft 364 kts 262°
2026-05-04 00:11 24.78396 -80.89437 12885 ft 360 kts 262°
2026-05-04 00:11 24.78085 -80.92149 12348 ft 355 kts 262°
2026-05-04 00:11 24.77776 -80.94828 11841 ft 351 kts 262°
2026-05-04 00:12 24.77470 -80.97474 11322 ft 347 kts 262°
2026-05-04 00:12 24.77156 -81.00087 10847 ft 341 kts 259°
2026-05-04 00:12 24.76507 -81.02533 10715 ft 326 kts 248°
2026-05-04 00:12 24.75465 -81.04685 10590 ft 312 kts 239°
2026-05-04 00:13 24.74348 -81.06677 10474 ft 300 kts 239°
2026-05-04 00:13 24.73279 -81.08592 10342 ft 288 kts 239°
2026-05-04 00:13 24.72247 -81.10442 10137 ft 281 kts 239°
2026-05-04 00:13 24.71237 -81.12248 10072 ft 277 kts 239°
2026-05-04 00:14 24.70226 -81.14056 9989 ft 278 kts 239°
2026-05-04 00:14 24.69210 -81.15876 9648 ft 281 kts 239°
2026-05-04 00:14 24.68188 -81.17702 9252 ft 280 kts 239°
2026-05-04 00:14 24.67174 -81.19513 8917 ft 277 kts 239°
2026-05-04 00:15 24.66162 -81.21315 8516 ft 276 kts 239°
2026-05-04 00:15 24.65157 -81.23102 8162 ft 275 kts 239°
2026-05-04 00:15 24.64000 -81.24762 7860 ft 271 kts 230°
2026-05-04 00:15 24.62775 -81.26316 7761 ft 269 kts 230°
2026-05-04 00:16 24.61555 -81.27871 7647 ft 268 kts 230°
2026-05-04 00:16 24.60340 -81.29420 7494 ft 268 kts 230°
2026-05-04 00:16 24.59125 -81.30967 7375 ft 267 kts 230°
2026-05-04 00:16 24.57915 -81.32508 7241 ft 266 kts 230°
2026-05-04 00:17 24.56710 -81.34047 7119 ft 265 kts 230°
2026-05-04 00:17 24.55634 -81.35680 6990 ft 264 kts 242°
2026-05-04 00:17 24.54796 -81.37475 6861 ft 264 kts 243°
2026-05-04 00:17 24.53953 -81.39265 6731 ft 263 kts 242°
2026-05-04 00:18 24.53107 -81.41052 6598 ft 264 kts 243°
2026-05-04 00:18 24.52259 -81.42835 6473 ft 263 kts 242°
2026-05-04 00:18 24.51426 -81.44587 6341 ft 263 kts 242°
2026-05-04 00:18 24.50569 -81.46386 6210 ft 262 kts 242°
2026-05-04 00:19 24.49724 -81.48157 6080 ft 262 kts 242°
2026-05-04 00:19 24.48894 -81.49903 5952 ft 261 kts 243°
2026-05-04 00:19 24.48048 -81.51688 5824 ft 260 kts 243°
2026-05-04 00:19 24.47216 -81.53450 5702 ft 260 kts 243°
2026-05-04 00:20 24.46604 -81.55281 5569 ft 260 kts 258°
2026-05-04 00:20 24.46455 -81.57258 5465 ft 261 kts 268°
2026-05-04 00:20 24.46450 -81.59254 5331 ft 261 kts 268°
2026-05-04 00:20 24.46435 -81.61241 5206 ft 260 kts 268°
2026-05-04 00:21 24.46416 -81.63223 5077 ft 260 kts 268°
2026-05-04 00:21 24.46396 -81.65178 4958 ft 251 kts 268°
2026-05-04 00:21 24.46377 -81.67054 4850 ft 240 kts 268°
2026-05-04 00:21 24.46360 -81.68845 4744 ft 229 kts 268°
2026-05-04 00:22 24.46341 -81.70585 4613 ft 230 kts 267°
2026-05-04 00:22 24.46323 -81.72351 4472 ft 232 kts 268°
2026-05-04 00:22 24.46306 -81.74102 4409 ft 229 kts 268°
2026-05-04 00:22 24.46288 -81.75846 4318 ft 228 kts 268°
2026-05-04 00:23 24.46272 -81.77579 4210 ft 226 kts 268°
2026-05-04 00:23 24.46254 -81.79299 4103 ft 225 kts 268°
2026-05-04 00:23 24.46235 -81.81016 3994 ft 225 kts 268°
2026-05-04 00:23 24.46217 -81.82743 3888 ft 227 kts 268°
2026-05-04 00:24 24.46201 -81.84421 3790 ft 213 kts 268°
2026-05-04 00:24 24.46185 -81.86021 3684 ft 208 kts 269°
2026-05-04 00:24 24.46169 -81.87600 3583 ft 206 kts 269°
2026-05-04 00:24 24.46155 -81.89102 3496 ft 187 kts 268°
2026-05-04 00:25 24.46140 -81.90463 3394 ft 170 kts 269°
2026-05-04 00:25 24.46125 -81.91702 3312 ft 157 kts 268°
2026-05-04 00:25 24.46110 -81.92892 3242 ft 155 kts 267°
2026-05-04 00:25 24.46096 -81.94079 3171 ft 156 kts 269°
2026-05-04 00:26 24.46082 -81.95270 3105 ft 156 kts 268°
2026-05-04 00:26 24.46121 -81.96456 3029 ft 156 kts 282°
2026-05-04 00:26 24.46688 -81.97467 3004 ft 162 kts 319°
2026-05-04 00:26 24.47760 -81.97863 3031 ft 169 kts 358°
2026-05-04 00:27 24.48938 -81.97714 3022 ft 171 kts
2026-05-04 00:27 24.50123 -81.97544 3011 ft 173 kts
2026-05-04 00:27 24.51312 -81.97374 3012 ft 172 kts
2026-05-04 00:27 24.52499 -81.97203 3009 ft 172 kts
2026-05-04 00:28 24.53684 -81.97031 3014 ft 171 kts
2026-05-04 00:28 24.54834 -81.96663 2973 ft 179 kts 36°
2026-05-04 00:28 24.55410 -81.95515 3023 ft 172 kts 86°
2026-05-04 00:28 24.55436 -81.94219 3016 ft 170 kts 91°
2026-05-04 00:29 24.55445 -81.92930 2901 ft 168 kts 91°
2026-05-04 00:29 24.55455 -81.91638 2677 ft 169 kts 91°
2026-05-04 00:29 24.55466 -81.90368 2436 ft 166 kts 90°
2026-05-04 00:29 24.55478 -81.89108 2218 ft 163 kts 89°
2026-05-04 00:30 24.55490 -81.87875 1998 ft 161 kts 90°
2026-05-04 00:30 24.55502 -81.86655 1790 ft 159 kts 89°
2026-05-04 00:30 24.55516 -81.85452 1572 ft 157 kts 89°
2026-05-04 00:30 24.55528 -81.84256 1371 ft 156 kts 89°
2026-05-04 00:31 24.55539 -81.83081 1167 ft 155 kts 89°
2026-05-04 00:31 24.55549 -81.81903 958 ft 154 kts 90°
2026-05-04 00:31 24.55560 -81.80719 772 ft 154 kts 88°
2026-05-04 00:31 24.55575 -81.79546 560 ft 151 kts 88°
2026-05-04 00:32 24.55584 -81.78405 328 ft 147 kts 88°
2026-05-04 00:32 24.55599 -81.77287 137 ft 146 kts 86°
2026-05-04 00:32 24.55611 -81.76185 10 ft 132 kts 89°
2026-05-04 00:32 24.55614 -81.75633 14 ft 16 kts 94°
2026-05-04 00:33 24.55552 -81.75586 13 ft 7 kts 175°
2026-05-04 00:33 24.55447 -81.75576 12 ft 6 kts 180°